星链-35028 (STARLINK-35028)

导读

STARLINK-35028是美国于2025年8月30日发射的星链系列卫星,隶属于SpaceX公司主导的星链星座项目。作为星链网络的组成部分,该卫星旨在提供全球覆盖的低延迟高速互联网服务,尤其服务偏远地区与通信基础设施薄弱区域,进一步扩充星链星座的组网规模与全球服务能力。

Basic Information
目录编号:
65381
目录名称:
STARLINK-35028
国际标识:
2025-191C
轨道中心:
EARTH
卫星名称:
星链-35028
卫星全名:
星链-35028 (STARLINK-35028)
卫星状态:
在轨 (已飞行370 天)
发射日期:
2025-08-30 UTC
国别 :
美国 (US)
星等 :
--
Orbit Information
数据来源 国际轨道数据
星历时间: 2026-09-04T04:00:02+0800
8小时前
查看轨道信息
半长轴: 6876.117km
偏心率: 0.0001698
轨道倾角: 97.285°
近地点辐角 85.542°
升交点赤经 113.085°
平近点角 268.702°
近地点: 496.812km
远地点: 499.148km
周期: 94.575分钟
每日圈数: 15.226074
Detailed Information
固有亮度:
5
最大亮度:
2.5
卫星平台:
Starlink V1.0
覆盖范围:
全球
运营商:
太空探索技术公司
运营商所在国:
美国
制造商(研发单位):
太空探索技术公司
制造商所在国:
美国
使用方式:
暂无
Satellite Introduction
Starlink 计划是 SpaceX 推出的全球卫星互联网项目,通过发射低轨道卫星,为全球尤其是偏远地区提供高速、低延迟的互联网服务。自 2019 年起,Starlink 已部署数千颗卫星,旨在缩小全球数字鸿沟,推动互联网普及。该项目还为军事、航空等行业提供通信支持,带来广泛经济效益。
2D Orbit Map
3D Orbit Map
Orbit Altitude Analysis Chart
Orbit Inclination Analysis Chart
Orbit Comprehensive Analysis Chart
View Comprehensive Chart
Conjunction Data List
Event ID Objects TCA Miss Dist (km) Collision Risk Probability Collision Risk Index (CRI) Action
CDM_260903-225805-629606-538121
2026-09-03T
22:58:14+0000
0.577 km
远距离
1.356343E-4 高风险 0.78
CDM_260901-004904-381006-538122
2026-09-01T
00:49:21+0000
1.421 km
极远距离
8.098619E-6 低风险 0.53
CDM_260904-075605-247106-538121
2026-09-04T
07:56:27+0000
2.152 km
极远距离
2.339285E-6 低风险 0.42
CDM_260903-225705-879706-538121
2026-09-03T
22:57:54+0000
2.875 km
极远距离
1.318269E-6 低风险 0.37